| time (UTC) | temp C | wind direction | speed KPH | gust KPH | rain 1hr cm | rain 24hr cm | rain mn cm | humidity % | barometer mb |
| 20260508033038 | 15 | 0 | 0.0 | 4.8 | 0.00 | 0.00 | 0.00 | 88 | 1021.5 |
| 20260508031550 | 16 | 0 | 0.0 | 4.8 | 0.00 | 0.00 | 0.00 | 87 | 1021.4 |
| 20260508030049 | 16 | 34 | 0.0 | 6.4 | 0.00 | 0.00 | 0.00 | 87 | 1021.2 |
| 20260508024554 | 16 | 22 | 0.0 | 4.8 | 0.00 | 0.00 | 0.00 | 86 | 1021.2 |
| 20260508023046 | 16 | 0 | 0.0 | 0.0 | 0.00 | 0.00 | 0.00 | 85 | 1020.9 |
| 20260508021544 | 17 | 0 | 0.0 | 1.6 | 0.00 | 0.00 | 0.00 | 83 | 1020.7 |
| 20260508020040 | 17 | 61 | 0.0 | 6.4 | 0.00 | 0.00 | 0.00 | 82 | 1020.5 |
| 20260508014539 | 18 | 81 | 1.6 | 6.4 | 0.00 | 0.00 | 0.00 | 80 | 1020.6 |
| 20260508013038 | 18 | 19 | 1.6 | 8.0 | 0.00 | 0.00 | 0.00 | 80 | 1020.6 |
| 20260508011540 | 18 | 29 | 3.2 | 8.0 | 0.00 | 0.00 | 0.00 | 78 | 1020.6 |
| 20260508010044 | 19 | 43 | 3.2 | 11.3 | 0.00 | 0.00 | 0.00 | 77 | 1020.5 |
| 20260508004541 | 20 | 19 | 1.6 | 9.7 | 0.00 | 0.00 | 0.00 | 76 | 1020.6 |
| 20260508003045 | 20 | 105 | 4.8 | 12.9 | 0.00 | 0.00 | 0.00 | 76 | 1020.6 |
| 20260508001547 | 20 | 0 | 3.2 | 16.1 | 0.00 | 0.00 | 0.00 | 76 | 1020.7 |
| 20260508000045 | 20 | 38 | 4.8 | 16.1 | 0.00 | 0.00 | 0.00 | 76 | 1020.5 |
| 20260507234543 | 20 | 34 | 4.8 | 16.1 | 0.00 | 0.00 | 0.00 | 74 | 1020.6 |
| 20260507233040 | 20 | 63 | 6.4 | 16.1 | 0.00 | 0.00 | 0.00 | 74 | 1020.7 |
| 20260507231539 | 21 | 40 | 4.8 | 14.5 | 0.00 | 0.00 | 0.00 | 74 | 1020.7 |
| 20260507230039 | 21 | 13 | 6.4 | 14.5 | 0.00 | 0.00 | 0.00 | 73 | 1020.7 |
| 20260507224538 | 20 | 29 | 4.8 | 14.5 | 0.00 | 0.00 | 0.00 | 74 | 1020.8 |
| 20260507223043 | 21 | 55 | 6.4 | 14.5 | 0.00 | 0.00 | 0.00 | 74 | 1020.8 |
| 20260507221539 | 21 | 30 | 6.4 | 16.1 | 0.00 | 0.00 | 0.00 | 73 | 1020.8 |
| 20260507220037 | 21 | 53 | 4.8 | 16.1 | 0.00 | 0.00 | 0.00 | 73 | 1020.9 |
| 20260507214545 | 20 | 40 | 6.4 | 17.7 | 0.00 | 0.00 | 0.00 | 74 | 1021.3 |
| 20260507213040 | 20 | 32 | 6.4 | 16.1 | 0.00 | 0.00 | 0.00 | 73 | 1021.5 |
| 20260507211540 | 21 | 78 | 4.8 | 14.5 | 0.00 | 0.00 | 0.00 | 73 | 1021.4 |
| 20260507210039 | 21 | 113 | 6.4 | 20.9 | 0.00 | 0.00 | 0.00 | 73 | 1021.5 |
| 20260507204538 | 21 | 61 | 4.8 | 19.3 | 0.00 | 0.00 | 0.00 | 71 | 1021.8 |
| 20260507203036 | 21 | 51 | 4.8 | 14.5 | 0.00 | 0.00 | 0.00 | 71 | 1021.6 |
| 20260507201540 | 21 | 24 | 4.8 | 17.7 | 0.00 | 0.00 | 0.00 | 72 | 1021.7 |
| 20260507200050 | 21 | 63 | 4.8 | 14.5 | 0.00 | 0.00 | 0.00 | 71 | 1021.9 |
| 20260507194547 | 21 | 37 | 6.4 | 16.1 | 0.00 | 0.00 | 0.00 | 72 | 1022.0 |
| 20260507193040 | 21 | 21 | 6.4 | 14.5 | 0.00 | 0.00 | 0.00 | 71 | 1022.1 |
| 20260507191608 | 21 | 55 | 4.8 | 17.7 | 0.00 | 0.00 | 0.00 | 72 | 1022.4 |
| 20260507190045 | 21 | 57 | 3.2 | 14.5 | 0.00 | 0.00 | 0.00 | 72 | 1022.5 |
| 20260507184555 | 21 | 51 | 4.8 | 16.1 | 0.00 | 0.00 | 0.00 | 71 | 1022.8 |
| 20260507183045 | 21 | 40 | 4.8 | 16.1 | 0.00 | 0.00 | 0.00 | 72 | 1022.7 |
| 20260507181539 | 21 | 59 | 4.8 | 12.9 | 0.00 | 0.00 | 0.00 | 72 | 1022.7 |
| 20260507180041 | 20 | 109 | 3.2 | 9.7 | 0.00 | 0.00 | 0.00 | 73 | 1022.7 |
| 20260507174538 | 20 | 0 | 4.8 | 9.7 | 0.00 | 0.00 | 0.00 | 74 | 1022.9 |
| 20260507173043 | 20 | 46 | 4.8 | 12.9 | 0.00 | 0.00 | 0.00 | 73 | 1023.1 |
| 20260507171548 | 20 | 0 | 3.2 | 12.9 | 0.00 | 0.00 | 0.00 | 74 | 1023.0 |
| 20260507170039 | 20 | 5 | 3.2 | 12.9 | 0.00 | 0.00 | 0.00 | 73 | 1022.9 |
| 20260507164554 | 20 | 17 | 3.2 | 11.3 | 0.00 | 0.00 | 0.00 | 72 | 1023.0 |
| 20260507163039 | 19 | 267 | 0.0 | 9.7 | 0.00 | 0.00 | 0.00 | 73 | 1023.0 |
| 20260507161549 | 18 | 342 | 1.6 | 8.0 | 0.00 | 0.00 | 0.00 | 75 | 1022.9 |
| 20260507160040 | 18 | 41 | 1.6 | 6.4 | 0.00 | 0.00 | 0.00 | 77 | 1023.1 |
| 20260507154537 | 17 | 89 | 1.6 | 6.4 | 0.00 | 0.00 | 0.00 | 79 | 1023.1 |
| 20260507153039 | 17 | 0 | 1.6 | 4.8 | 0.00 | 0.00 | 0.00 | 80 | 1023.2 |
| 20260507151546 | 16 | 0 | 1.6 | 4.8 | 0.00 | 0.00 | 0.00 | 83 | 1023.2 |
| 20260507150043 | 15 | 15 | 1.6 | 4.8 | 0.00 | 0.00 | 0.00 | 84 | 1023.0 |
| 20260507144540 | 14 | 0 | 0.0 | 0.0 | 0.00 | 0.00 | 0.00 | 88 | 1023.0 |
| 20260507143056 | 13 | 0 | 0.0 | 0.0 | 0.00 | 0.00 | 0.00 | 90 | 1022.8 |
| 20260507141604 | 12 | 0 | 0.0 | 0.0 | 0.00 | 0.00 | 0.00 | 93 | 1022.6 |
| 20260507140042 | 11 | 0 | 0.0 | 0.0 | 0.00 | 0.00 | 0.00 | 93 | 1022.5 |
| 20260507134540 | 11 | 0 | 0.0 | 0.0 | 0.00 | 0.00 | 0.00 | 93 | 1022.2 |
| 20260507133041 | 10 | 0 | 0.0 | 0.0 | 0.00 | 0.00 | 0.00 | 93 | 1022.0 |
| 20260507131546 | 10 | 0 | 0.0 | 0.0 | 0.00 | 0.00 | 0.00 | 93 | 1021.9 |
| 20260507130042 | 10 | 0 | 0.0 | 0.0 | 0.00 | 0.00 | 0.00 | 93 | 1021.9 |
| 20260507124542 | 10 | 0 | 0.0 | 0.0 | 0.00 | 0.00 | 0.00 | 92 | 1021.9 |
| 20260507123043 | 10 | 0 | 0.0 | 0.0 | 0.00 | 0.00 | 0.00 | 92 | 1021.8 |
| 20260507121543 | 10 | 0 | 0.0 | 0.0 | 0.00 | 0.00 | 0.00 | 92 | 1021.7 |
| 20260507120036 | 11 | 0 | 0.0 | 0.0 | 0.00 | 0.00 | 0.00 | 92 | 1021.9 |
| 20260507114541 | 11 | 0 | 0.0 | 0.0 | 0.00 | 0.00 | 0.00 | 92 | 1021.9 |
| 20260507113040 | 11 | 0 | 0.0 | 0.0 | 0.00 | 0.00 | 0.00 | 92 | 1022.0 |
| 20260507111540 | 11 | 0 | 0.0 | 0.0 | 0.00 | 0.00 | 0.00 | 92 | 1022.2 |
| 20260507110037 | 11 | 0 | 0.0 | 0.0 | 0.00 | 0.00 | 0.00 | 91 | 1022.3 |
| 20260507104546 | 11 | 0 | 0.0 | 1.6 | 0.00 | 0.00 | 0.00 | 91 | 1022.3 |
| 20260507103043 | 11 | 0 | 0.0 | 1.6 | 0.00 | 0.00 | 0.00 | 91 | 1022.3 |
| 20260507101542 | 11 | 0 | 0.0 | 0.0 | 0.00 | 0.00 | 0.00 | 90 | 1022.3 |
| 20260507100052 | 11 | 0 | 0.0 | 0.0 | 0.00 | 0.00 | 0.00 | 90 | 1022.3 |
| 20260507094540 | 12 | 0 | 0.0 | 0.0 | 0.00 | 0.00 | 0.00 | 90 | 1022.4 |
| 20260507093037 | 12 | 0 | 0.0 | 3.2 | 0.00 | 0.00 | 0.00 | 90 | 1022.5 |
| 20260507091543 | 12 | 0 | 0.0 | 0.0 | 0.00 | 0.00 | 0.00 | 90 | 1022.7 |
| 20260507090049 | 12 | 0 | 0.0 | 3.2 | 0.00 | 0.00 | 0.00 | 90 | 1023.0 |
| 20260507084549 | 12 | 0 | 0.0 | 0.0 | 0.00 | 0.00 | 0.00 | 90 | 1023.1 |
| 20260507083039 | 12 | 0 | 0.0 | 0.0 | 0.00 | 0.00 | 0.00 | 90 | 1023.2 |
| 20260507081545 | 12 | 0 | 0.0 | 0.0 | 0.00 | 0.00 | 0.00 | 89 | 1023.5 |
| 20260507080041 | 12 | 0 | 0.0 | 0.0 | 0.00 | 0.00 | 0.00 | 88 | 1023.5 |
| 20260507074541 | 12 | 0 | 0.0 | 0.0 | 0.00 | 0.00 | 0.00 | 88 | 1023.3 |
| 20260507073040 | 12 | 0 | 0.0 | 0.0 | 0.00 | 0.00 | 0.00 | 87 | 1023.2 |
| 20260507071539 | 13 | 0 | 0.0 | 0.0 | 0.00 | 0.00 | 0.00 | 88 | 1023.4 |
| 20260507070043 | 13 | 0 | 0.0 | 0.0 | 0.00 | 0.00 | 0.00 | 87 | 1023.5 |
| 20260507064613 | 13 | 0 | 0.0 | 0.0 | 0.00 | 0.00 | 0.00 | 86 | 1023.5 |
| 20260507063037 | 13 | 0 | 0.0 | 0.0 | 0.00 | 0.00 | 0.00 | 86 | 1023.5 |
| 20260507061540 | 13 | 0 | 0.0 | 0.0 | 0.00 | 0.00 | 0.00 | 85 | 1023.5 |
| 20260507060108 | 13 | 0 | 0.0 | 0.0 | 0.00 | 0.00 | 0.00 | 85 | 1023.5 |
| 20260507054551 | 13 | 0 | 0.0 | 0.0 | 0.00 | 0.00 | 0.00 | 84 | 1023.4 |
| 20260507053044 | 14 | 0 | 0.0 | 0.0 | 0.00 | 0.00 | 0.00 | 83 | 1023.2 |
| 20260507051553 | 14 | 0 | 0.0 | 0.0 | 0.00 | 0.00 | 0.00 | 82 | 1023.2 |
| 20260507050046 | 14 | 0 | 0.0 | 0.0 | 0.00 | 0.00 | 0.00 | 82 | 1023.3 |
| 20260507044539 | 15 | 0 | 0.0 | 0.0 | 0.00 | 0.00 | 0.00 | 81 | 1023.4 |
| 20260507043041 | 15 | 0 | 0.0 | 0.0 | 0.00 | 0.00 | 0.00 | 80 | 1023.4 |
| 20260507041537 | 15 | 0 | 0.0 | 0.0 | 0.00 | 0.00 | 0.00 | 79 | 1023.4 |
| 20260507040042 | 15 | 0 | 0.0 | 3.2 | 0.00 | 0.00 | 0.00 | 78 | 1023.2 |
| 20260507034538 | 16 | 0 | 0.0 | 3.2 | 0.00 | 0.00 | 0.00 | 78 | 1023.0 |